Location: Unspecified
(40.7945°N, 0.0000°E)
Time: 20:03:57
(UTC+00:00)

Explorer 7 - Pass Details

Date: 21 June 2021
Orbit: 484 x 676 km, 50.3° (Epoch: 28 July)

Event Time Altitude Azimuth Distance (km) Brightness Sun altitude
Rises 20:39:21 0° 247° (WSW) 3,011 10.9 -10.4°
Reaches altitude 10° 20:41:44 10° 251° (WSW) 2,105 10.1 -10.7°
Maximum altitude 20:46:34 60° 331° (NNW) 768 7.9 -11.4°
Drops below altitude 10° 20:51:22 10° 52° (NE) 2,084 9.7 -12.0°
Sets 20:53:43 0° 56° (NE) 2,979 10.5 -12.3°
